Regional Weather Roundup
Issued by NWS

Home | Current Version | Previous Version | Text Only | Print | Product List | Glossary On
Versions: 1 2 3 4 5 6 7 8 9 10 11 12 13 14 15 16 17 18 19 20 21 22 23 24 25 26 27 28 29 30 31 32 33 34 35 36 37 38 39 40 41 42 43 44 45 46 47 48 49 50
000
ASUS44 KLIX 290213
RWRLA
LOUISIANA WEATHER ROUNDUP
NATIONAL WEATHER SERVICE NEW ORLEANS LA
900 PM CDT SUN MAY 28 2017

NOTE: "FAIR" INDICATES FEW OR NO CLOUDS BELOW 12,000 FEET WITH NO
      SIGNIFICANT WEATHER AND/OR OBSTRUCTIONS TO VISIBILITY.
      SKY/WX - SKY CONDITION AND SIGNIFICANT WEATHER.
      TMP - AIR TEMPERATURE.    DP   - DEWPOINT TEMPERATURE.
      RH  - RELATIVE HUMIDITY.  PRES - PRESSURE.
      HX  - HEAT INDEX.         WCI  - WIND CHILL INDEX.

*  THESE STATIONS ARE NOT NWS OR FAA STATIONS AND ARE NOT UNDER
   NWS QUALITY CONTROL.

LAZ040-048-061>063-065-066-069-290300-
SOUTHEAST LOUISIANA

CITY           SKY/WX    TMP DP  RH WIND       PRES   REMARKS
N.O. INTL ARPT MOCLDY    80  73  79 S6        29.94R
N.O. LAKEFRONT MOCLDY    80  73  79 S3        29.95R
N.O. DOWNTOWN*   N/A     83  73  72 CALM        N/A
RESERVE*       FAIR      81  74  78 SE3       29.95R
SLIDELL        MOCLDY    81  74  79 S7        29.94R
BATON ROUGE    CLOUDY    79  72  79 N5        29.96R
BOOTHVILLE     CLOUDY    80  78  94 S18G28    29.91F FOG
BELLE CHASSE   CLOUDY   N/A N/A N/A S8        29.92R
BOGALUSA*      FAIR      78  72  81 CALM      29.98R
GALLIANO*      CLOUDY    79  72  79 SE6       29.90S
NEW ROADS*     FAIR      77  73  88 CALM      29.96R THUNDER
GONZALES*      FAIR      81  72  72 S6        29.94R
HAMMOND*       CLOUDY    79  70  73 S9        29.95R
HOUMA*         NOT AVBL
PORT FOURCHON* CLEAR     81  75  83 SE14G22   29.88F HAZE

$$

LAZ041-044-053-054-290300-
SOUTHWEST LOUISIANA

CITY           SKY/WX    TMP DP  RH WIND       PRES   REMARKS
LAKE CHARLES   CLOUDY    80  76  87 CALM      29.97R
LAFAYETTE      MOCLDY    80  75  84 S6        29.97R
PATTERSON      LGT RAIN  80  75  84 CALM      29.95R
SALT POINT       N/A     79  76  90 CALM      29.91R
NEW IBERIA     MOCLDY    80  73  79 SW3       29.97R
CHENAULT AIRPK MOCLDY    81  75  83 E8        29.97R

$$

LAZ027-028-290300-
CENTRAL LOUISIANA

CITY           SKY/WX    TMP DP  RH WIND       PRES   REMARKS
FORT POLK      RAIN      68  66  94 NE8G20    30.01R FOG
ALEXANDRIA INT TSTM      67  66  97 NW10G46   30.04R VSB 3/4
ALEXANDRIA     CLOUDY    76  75  97 CALM      29.96R

$$

LAZ001-002-290300-
NORTHWEST LOUISIANA

CITY           SKY/WX    TMP DP  RH WIND       PRES   REMARKS
SHREVEPORT     TSTM      70  70 100 SW5       29.91R
BARKSDALE AFB  LGT RAIN  72  72 100 W3        29.92S
DTN SHREVEPORT LGT RAIN  73  70  90 VRB3      29.92R

$$

LAZ014-016-290300-
NORTHEAST LOUISIANA

CITY           SKY/WX    TMP DP  RH WIND       PRES   REMARKS
MONROE         TSTM      71  65  81 E10G24    29.95F
TALLULAH       TSTM      74  71  91 SE5       29.97R

$$




USA.gov is the U.S. government's official web portal to all federal, state and local government web resources and services.